TimeEST,TemperatureF,Dew PointF,Humidity,Sea Level PressureIn,VisibilityMPH,Wind Direction,Wind SpeedMPH,Gust SpeedMPH,PrecipitationIn,Events,Conditions,WindDirDegrees,DateUTC
12:51 AM,28.0,6.1,39,29.68,10.0,North,11.5,21.9,N/A,,Overcast,360,2013-02-17 05:51:00
1:51 AM,28.0,3.9,36,29.68,10.0,North,13.8,20.7,N/A,,Overcast,350,2013-02-17 06:51:00
2:51 AM,27.0,3.9,37,29.63,10.0,North,10.4,26.5,N/A,,Overcast,360,2013-02-17 07:51:00
3:51 AM,26.1,5.0,41,29.61,10.0,NNW,13.8,18.4,N/A,,Overcast,340,2013-02-17 08:51:00
4:51 AM,24.1,10.9,57,29.58,9.0,NNW,18.4,26.5,0.00,Snow,Light Snow,340,2013-02-17 09:51:00
5:28 AM,21.2,15.8,80,29.56,4.0,NW,19.6,23.0,0.00,Snow,Light Snow,320,2013-02-17 10:28:00
5:37 AM,21.2,15.8,80,29.55,5.0,NNW,16.1,21.9,0.00,Snow,Light Snow,330,2013-02-17 10:37:00
5:51 AM,21.9,15.1,75,29.54,8.0,NNW,15.0,23.0,0.00,,Overcast,330,2013-02-17 10:51:00
6:51 AM,21.0,16.0,81,29.50,1.5,NW,17.3,24.2,0.00,Snow,Light Snow,310,2013-02-17 11:51:00
7:51 AM,19.9,15.1,81,29.44,1.2,NW,18.4,24.2,0.00,Snow,Light Snow,310,2013-02-17 12:51:00
8:51 AM,19.9,15.1,81,29.39,1.0,NW,17.3,26.5,0.00,Snow,Light Snow,310,2013-02-17 13:51:00
9:47 AM,19.4,15.8,86,29.36,0.8,NW,17.3,28.8,0.00,Snow,Light Snow,310,2013-02-17 14:47:00
9:51 AM,19.9,15.1,81,29.36,0.8,NW,17.3,26.5,0.00,Snow,Light Snow,310,2013-02-17 14:51:00
10:11 AM,19.4,15.8,86,29.34,0.8,NW,16.1,26.5,0.00,Snow,Light Snow,310,2013-02-17 15:11:00
10:42 AM,19.4,15.8,86,29.33,0.5,NW,20.7,32.2,0.00,Snow,Snow,310,2013-02-17 15:42:00
10:51 AM,19.9,15.1,81,29.34,0.8,NW,17.3,28.8,0.00,Snow,Light Snow,310,2013-02-17 15:51:00
11:51 AM,19.9,14.0,78,29.31,1.0,NW,20.7,26.5,0.00,Snow,Light Snow,310,2013-02-17 16:51:00
12:51 PM,19.9,12.9,74,29.29,1.2,WNW,18.4,35.7,0.00,Snow,Light Snow,300,2013-02-17 17:51:00
1:23 PM,19.4,12.2,74,29.29,2.0,NW,25.3,32.2,0.00,Snow,Light Snow,310,2013-02-17 18:23:00
1:51 PM,21.0,10.9,65,29.29,5.0,WNW,18.4,27.6,0.00,,Overcast,300,2013-02-17 18:51:00
2:51 PM,21.9,6.1,51,29.29,5.0,NW,21.9,40.3,0.00,,Overcast,310,2013-02-17 19:51:00
3:51 PM,21.0,3.0,46,29.31,8.0,WNW,23.0,29.9,0.00,,Overcast,300,2013-02-17 20:51:00
4:51 PM,19.0,1.0,46,29.35,9.0,WNW,15.0,31.1,0.00,,Overcast,290,2013-02-17 21:51:00
5:51 PM,17.1,1.0,50,29.38,8.0,WNW,18.4,41.4,N/A,,Overcast,290,2013-02-17 22:51:00
6:51 PM,16.0,-0.0,49,29.41,8.0,WNW,25.3,39.1,0.00,,Overcast,290,2013-02-17 23:51:00
7:51 PM,16.0,1.0,52,29.43,7.0,WNW,21.9,39.1,0.00,,Overcast,290,2013-02-18 00:51:00
8:51 PM,16.0,-0.0,49,29.47,10.0,WNW,18.4,28.8,N/A,,Overcast,300,2013-02-18 01:51:00
9:51 PM,15.1,-0.0,51,29.49,10.0,WNW,13.8,29.9,N/A,,Overcast,290,2013-02-18 02:51:00
10:51 PM,15.1,-0.0,51,29.52,10.0,WNW,27.6,34.5,N/A,,Overcast,300,2013-02-18 03:51:00